DW7918 Weather Reports


time (UTC)temp
C
wind
direction
speed
KPH
gust
KPH
rain 1hr
cm
rain 24hr
cm
rain mn
cm
humidity
%
barometer
mb
20260510192203 16 54 8.0 19.3 0.00 0.00 0.00 25 1018.9
20260510192003 15 75 8.0 16.1 0.00 0.00 0.00 23 1018.9
20260510191803 15 69 6.4 16.1 0.00 0.00 0.00 25 1018.8
20260510191603 15 70 6.4 24.1 0.00 0.00 0.00 22 1018.8
20260510191403 15 71 8.0 24.1 0.00 0.00 0.00 24 1018.9
20260510191203 15 46 8.0 24.1 0.00 0.00 0.00 24 1018.9
20260510191003 15 28 9.7 24.1 0.00 0.00 0.00 24 1018.9
20260510190803 15 18 11.3 24.1 0.00 0.00 0.00 22 1018.8
20260510190603 15 21 12.9 22.5 0.00 0.00 0.00 22 1018.9
20260510190403 15 17 12.9 25.7 0.00 0.00 0.00 24 1018.9
20260510190203 15 28 12.9 25.7 0.00 0.00 0.00 25 1018.9
20260510190003 15 48 11.3 25.7 0.00 0.00 0.00 26 1018.8
20260510185803 15 68 11.3 25.7 0.00 0.00 0.00 27 1018.7
20260510185603 15 78 11.3 25.7 0.00 0.00 0.00 27 1018.7
20260510185424 15 87 9.7 17.7 0.00 0.00 0.00 25 1018.7
20260510185203 15 82 9.7 17.7 0.00 0.00 0.00 21 1018.7
20260510185003 15 72 9.7 17.7 0.00 0.00 0.00 25 1018.7
20260510184803 15 73 9.7 20.9 0.00 0.00 0.00 27 1018.7
20260510184603 15 74 9.7 20.9 0.00 0.00 0.00 25 1018.8
20260510184424 15 67 8.0 20.9 0.00 0.00 0.00 28 1018.8
20260510184224 15 58 8.0 20.9 0.00 0.00 0.00 26 1018.8
20260510184003 15 37 9.7 20.9 0.00 0.00 0.00 26 1018.7
20260510183803 15 9 8.0 16.1 0.00 0.00 0.00 25 1018.7
20260510183624 16 2 8.0 20.9 0.00 0.00 0.00 26 1018.7
20260510183403 16 356 9.7 20.9 0.00 0.00 0.00 26 1018.7
20260510183203 16 357 9.7 20.9 0.00 0.00 0.00 25 1018.7
20260510183003 15 4 9.7 20.9 0.00 0.00 0.00 27 1018.8
20260510182803 15 6 11.3 20.9 0.00 0.00 0.00 27 1018.9
20260510182603 15 4 11.3 19.3 0.00 0.00 0.00 25 1018.9
20260510182403 15 8 11.3 19.3 0.00 0.00 0.00 28 1018.9
20260510182203 15 18 11.3 19.3 0.00 0.00 0.00 26 1018.9
20260510182003 15 25 11.3 19.3 0.00 0.00 0.00 25 1018.9
20260510181803 15 30 11.3 19.3 0.00 0.00 0.00 25 1018.8
20260510181603 15 45 9.7 19.3 0.00 0.00 0.00 27 1018.8
20260510181403 15 50 11.3 19.3 0.00 0.00 0.00 28 1018.9
20260510181203 15 42 9.7 19.3 0.00 0.00 0.00 27 1018.8
20260510181024 15 44 9.7 19.3 0.00 0.00 0.00 30 1018.9
20260510180803 15 52 9.7 19.3 0.00 0.00 0.00 27 1018.8
20260510180603 15 40 8.0 19.3 0.00 0.00 0.00 27 1018.8
20260510180403 15 36 8.0 17.7 0.00 0.00 0.00 28 1018.8
20260510180203 15 37 8.0 17.7 0.00 0.00 0.00 27 1018.7
20260510180003 15 40 8.0 19.3 0.00 0.00 0.00 27 1018.7
20260510175803 14 44 9.7 19.3 0.00 0.00 0.00 27 1018.7
20260510175603 14 58 9.7 19.3 0.00 0.00 0.00 27 1018.7
20260510175424 14 67 11.3 20.9 0.00 0.00 0.00 24 1018.7
20260510175203 14 75 11.3 20.9 0.00 0.00 0.00 26 1018.7
20260510175003 14 75 9.7 20.9 0.00 0.00 0.00 24 1018.6
20260510174824 14 63 9.7 20.9 0.00 0.00 0.00 26 1018.7
20260510174603 14 35 9.7 20.9 0.00 0.00 0.00 24 1018.7
20260510174403 14 16 8.0 14.5 0.00 0.00 0.00 28 1018.6
20260510174203 15 3 8.0 14.5 0.00 0.00 0.00 26 1018.6
20260510174003 15 4 8.0 14.5 0.00 0.00 0.00 26 1018.6
20260510173803 15 7 8.0 14.5 0.00 0.00 0.00 28 1018.6
20260510173603 14 12 8.0 20.9 0.00 0.00 0.00 30 1018.6
20260510173403 15 17 8.0 20.9 0.00 0.00 0.00 27 1018.6
20260510173203 15 29 8.0 20.9 0.00 0.00 0.00 29 1018.5
20260510173004 15 48 8.0 20.9 0.00 0.00 0.00 32 1018.5
20260510172803 15 56 8.0 20.9 0.00 0.00 0.00 34 1018.5
20260510172603 14 66 8.0 19.3 0.00 0.00 0.00 31 1018.5
20260510172403 14 69 8.0 19.3 0.00 0.00 0.00 26 1018.4
20260510172204 14 67 6.4 19.3 0.00 0.00 0.00 25 1018.4
20260510172004 14 46 6.4 14.5 0.00 0.00 0.00 30 1018.4
20260510171803 14 43 6.4 14.5 0.00 0.00 0.00 29 1018.5
20260510171624 14 45 8.0 14.5 0.00 0.00 0.00 28 1018.4
20260510171403 14 41 8.0 14.5 0.00 0.00 0.00 27 1018.4
20260510171203 14 28 8.0 19.3 0.00 0.00 0.00 26 1018.6
20260510171003 15 30 8.0 19.3 0.00 0.00 0.00 25 1018.5
20260510170803 15 34 8.0 19.3 0.00 0.00 0.00 24 1018.5
20260510170603 15 19 9.7 19.3 0.00 0.00 0.00 28 1018.5
20260510170403 15 10 8.0 19.3 0.00 0.00 0.00 29 1018.6
20260510170203 14 19 9.7 24.1 0.00 0.00 0.00 28 1018.6
20260510170003 14 15 9.7 24.1 0.00 0.00 0.00 28 1018.6
20260510165803 14 8 8.0 24.1 0.00 0.00 0.00 26 1018.7
20260510165603 14 13 8.0 24.1 0.00 0.00 0.00 29 1018.7
20260510165403 14 11 8.0 24.1 0.00 0.00 0.00 29 1018.6
20260510165203 14 359 8.0 17.7 0.00 0.00 0.00 27 1018.6
20260510165024 14 4 8.0 16.1 0.00 0.00 0.00 24 1018.5
20260510164803 14 12 8.0 16.1 0.00 0.00 0.00 29 1018.5
20260510164624 14 17 8.0 16.1 0.00 0.00 0.00 26 1018.6
20260510164403 14 50 6.4 16.1 0.00 0.00 0.00 25 1018.6
20260510164203 14 94 4.8 16.1 0.00 0.00 0.00 29 1018.6
20260510164003 14 123 3.2 11.3 0.00 0.00 0.00 26 1018.5
20260510163824 13 111 3.2 11.3 0.00 0.00 0.00 24 1018.5
20260510163624 13 88 3.2 11.3 0.00 0.00 0.00 28 1018.6
20260510163403 13 87 3.2 12.9 0.00 0.00 0.00 28 1018.5
20260510163224 13 92 4.8 17.7 0.00 0.00 0.00 25 1018.5
20260510163003 13 101 4.8 17.7 0.00 0.00 0.00 25 1018.5
20260510162803 13 98 4.8 17.7 0.00 0.00 0.00 24 1018.6
20260510162603 13 50 6.4 17.7 0.00 0.00 0.00 26 1018.6
20260510162403 13 11 8.0 17.7 0.00 0.00 0.00 25 1018.6
20260510162224 13 360 8.0 14.5 0.00 0.00 0.00 25 1018.5
20260510162003 13 7 8.0 14.5 0.00 0.00 0.00 29 1018.6
20260510161824 13 3 9.7 14.5 0.00 0.00 0.00 27 1018.6
20260510161603 13 10 6.4 14.5 0.00 0.00 0.00 26 1018.5
20260510161403 13 26 6.4 12.9 0.00 0.00 0.00 31 1018.6
20260510161203 13 16 6.4 12.9 0.00 0.00 0.00 28 1018.4
20260510161003 13 3 4.8 11.3 0.00 0.00 0.00 29 1018.6
20260510160824 13 350 4.8 11.3 0.00 0.00 0.00 29 1018.6
20260510160603 13 357 4.8 9.7 0.00 0.00 0.00 29 1018.4
20260510160403 13 1 4.8 9.7 0.00 0.00 0.00 31 1018.5
20260510160203 13 358 4.8 9.7 0.00 0.00 0.00 30 1018.4
20260510160003 13 358 4.8 9.7 0.00 0.00 0.00 30 1018.5
20260510155803 13 19 4.8 9.7 0.00 0.00 0.00 29 1018.5
20260510155603 13 30 4.8 12.9 0.00 0.00 0.00 29 1018.5
20260510155403 13 26 6.4 12.9 0.00 0.00 0.00 29 1018.6
20260510155203 13 35 6.4 14.5 0.00 0.00 0.00 28 1018.5
20260510155003 13 44 6.4 16.1 0.00 0.00 0.00 29 1018.6
20260510154803 13 42 8.0 16.1 0.00 0.00 0.00 28 1018.5
20260510154603 13 39 8.0 16.1 0.00 0.00 0.00 29 1018.6
20260510154403 13 45 8.0 16.1 0.00 0.00 0.00 29 1018.5
20260510154224 13 38 8.0 17.7 0.00 0.00 0.00 30 1018.5
20260510154003 13 46 8.0 17.7 0.00 0.00 0.00 31 1018.5
20260510153803 13 52 6.4 17.7 0.00 0.00 0.00 28 1018.5
20260510153603 13 67 6.4 17.7 0.00 0.00 0.00 30 1018.4
20260510153403 13 112 6.4 17.7 0.00 0.00 0.00 30 1018.4
20260510153204 13 161 4.8 12.9 0.00 0.00 0.00 32 1018.4
20260510153003 13 171 4.8 12.9 0.00 0.00 0.00 28 1018.3
20260510152803 13 170 4.8 12.9 0.00 0.00 0.00 27 1018.3
20260510152603 13 145 4.8 12.9 0.00 0.00 0.00 26 1018.2
20260510152403 13 117 4.8 12.9 0.00 0.00 0.00 27 1018.2
20260510152203 12 88 3.2 11.3 0.00 0.00 0.00 31 1018.2
20260510152003 12 104 3.2 11.3 0.00 0.00 0.00 29 1018.2
20260510151803 12 110 4.8 11.3 0.00 0.00 0.00 28 1018.3
20260510151603 12 99 3.2 9.7 0.00 0.00 0.00 29 1018.2
20260510151424 12 94 3.2 8.0 0.00 0.00 0.00 27 1018.2
20260510151203 12 84 3.2 9.7 0.00 0.00 0.00 27 1018.2
20260510151024 12 54 3.2 12.9 0.00 0.00 0.00 29 1018.1
20260510150803 12 51 3.2 12.9 0.00 0.00 0.00 31 1018.1
20260510150603 12 76 4.8 12.9 0.00 0.00 0.00 32 1018.1
20260510150424 12 60 4.8 12.9 0.00 0.00 0.00 30 1018.0
20260510150203 12 48 4.8 12.9 0.00 0.00 0.00 32 1018.1
20260510150003 12 75 4.8 9.7 0.00 0.00 0.00 29 1018.0
20260510145803 12 52 4.8 9.7 0.00 0.00 0.00 28 1017.9
20260510145603 12 25 3.2 8.0 0.00 0.00 0.00 31 1017.9
20260510145403 12 33 3.2 11.3 0.00 0.00 0.00 31 1017.9
20260510145203 12 33 3.2 11.3 0.00 0.00 0.00 32 1017.9
20260510145003 12 36 3.2 11.3 0.00 0.00 0.00 31 1017.8
20260510144803 12 106 3.2 11.3 0.00 0.00 0.00 32 1017.8
20260510144603 12 164 3.2 11.3 0.00 0.00 0.00 31 1017.8
20260510144424 12 164 3.2 9.7 0.00 0.00 0.00 29 1017.8
20260510144203 12 156 3.2 9.7 0.00 0.00 0.00 29 1017.7
20260510144003 12 151 3.2 9.7 0.00 0.00 0.00 27 1017.7
20260510143803 12 102 3.2 9.7 0.00 0.00 0.00 30 1017.7
20260510143603 12 65 3.2 9.7 0.00 0.00 0.00 30 1017.7
20260510143403 12 62 4.8 8.0 0.00 0.00 0.00 31 1017.6
20260510143203 12 54 4.8 11.3 0.00 0.00 0.00 30 1017.6
20260510143003 12 47 4.8 11.3 0.00 0.00 0.00 31 1017.7
20260510142803 11 50 4.8 11.3 0.00 0.00 0.00 30 1017.6
20260510142603 11 55 3.2 11.3 0.00 0.00 0.00 35 1017.7
20260510142404 11 39 3.2 11.3 0.00 0.00 0.00 34 1017.7
20260510142203 11 25 3.2 9.7 0.00 0.00 0.00 33 1017.7
20260510142003 11 10 3.2 6.4 0.00 0.00 0.00 33 1017.8
20260510141824 11 10 3.2 9.7 0.00 0.00 0.00 34 1017.7
20260510141603 11 346 1.6 9.7 0.00 0.00 0.00 32 1017.7
20260510141403 11 139 1.6 9.7 0.00 0.00 0.00 34 1017.7
20260510141203 11 161 1.6 9.7 0.00 0.00 0.00 34 1017.7
20260510141003 11 173 1.6 9.7 0.00 0.00 0.00 33 1017.7
20260510140803 11 185 1.6 6.4 0.00 0.00 0.00 33 1017.7
20260510140603 11 185 3.2 9.7 0.00 0.00 0.00 33 1017.7
20260510140403 10 185 3.2 9.7 0.00 0.00 0.00 33 1017.6
20260510140203 10 187 3.2 9.7 0.00 0.00 0.00 33 1017.6
20260510140004 10 187 1.6 9.7 0.00 0.00 0.00 34 1017.6
20260510135803 10 186 1.6 9.7 0.00 0.00 0.00 35 1017.7
20260510135603 10 186 1.6 6.4 0.00 0.00 0.00 35 1017.6
20260510135403 10 185 1.6 6.4 0.00 0.00 0.00 34 1017.6
20260510135203 10 178 1.6 8.0 0.00 0.00 0.00 36 1017.7
20260510135003 10 178 1.6 8.0 0.00 0.00 0.00 36 1017.6
20260510134803 10 171 1.6 8.0 0.00 0.00 0.00 39 1017.6
20260510134603 10 175 1.6 8.0 0.00 0.00 0.00 37 1017.6
20260510134424 10 178 3.2 8.0 0.00 0.00 0.00 37 1017.6
20260510134203 10 185 3.2 8.0 0.00 0.00 0.00 38 1017.6
20260510134003 10 182 3.2 8.0 0.00 0.00 0.00 37 1017.5
20260510133803 10 187 3.2 8.0 0.00 0.00 0.00 38 1017.5
20260510133603 10 187 3.2 8.0 0.00 0.00 0.00 37 1017.5
20260510133403 10 185 3.2 8.0 0.00 0.00 0.00 37 1017.5
20260510133203 10 178 3.2 8.0 0.00 0.00 0.00 37 1017.4
20260510133003 10 167 1.6 8.0 0.00 0.00 0.00 39 1017.3
20260510132803 10 164 1.6 8.0 0.00 0.00 0.00 37 1017.4
20260510132603 10 156 1.6 8.0 0.00 0.00 0.00 40 1017.3
20260510132403 10 154 1.6 8.0 0.00 0.00 0.00 42 1017.3
20260510132203 10 157 1.6 4.8 0.00 0.00 0.00 43 1017.3
20260510132003 10 178 0.0 4.8 0.00 0.00 0.00 44 1017.3
20260510131803 9 181 0.0 4.8 0.00 0.00 0.00 44 1017.3
20260510131603 9 182 0.0 4.8 0.00 0.00 0.00 44 1017.3
20260510131424 9 183 1.6 6.4 0.00 0.00 0.00 44 1017.4
20260510131203 9 182 1.6 6.4 0.00 0.00 0.00 45 1017.4
20260510131003 9 180 1.6 6.4 0.00 0.00 0.00 45 1017.3
20260510130803 9 180 1.6 6.4 0.00 0.00 0.00 45 1017.3
20260510130624 9 181 1.6 6.4 0.00 0.00 0.00 44 1017.3
20260510130403 8 181 1.6 6.4 0.00 0.00 0.00 45 1017.3
20260510130224 8 182 1.6 6.4 0.00 0.00 0.00 46 1017.3
20260510130003 8 183 1.6 6.4 0.00 0.00 0.00 47 1017.4
20260510125824 8 184 1.6 6.4 0.00 0.00 0.00 47 1017.4
20260510125603 8 183 3.2 9.7 0.00 0.00 0.00 46 1017.4
20260510125403 8 184 3.2 9.7 0.00 0.00 0.00 46 1017.4
20260510125203 8 185 3.2 9.7 0.00 0.00 0.00 46 1017.3
20260510125003 8 185 3.2 9.7 0.00 0.00 0.00 46 1017.3
20260510124803 8 184 3.2 9.7 0.00 0.00 0.00 46 1017.2
20260510124603 8 179 1.6 8.0 0.00 0.00 0.00 46 1017.2
20260510124403 8 177 1.6 8.0 0.00 0.00 0.00 47 1017.2
20260510124203 8 175 1.6 8.0 0.00 0.00 0.00 47 1017.2
20260510124003 8 175 1.6 8.0 0.00 0.00 0.00 47 1017.3
20260510123803 8 177 1.6 8.0 0.00 0.00 0.00 47 1017.2
20260510123603 8 183 1.6 8.0 0.00 0.00 0.00 47 1017.2
20260510123403 8 183 1.6 6.4 0.00 0.00 0.00 47 1017.2
20260510123203 8 183 1.6 6.4 0.00 0.00 0.00 48 1017.2
20260510123003 8 183 1.6 6.4 0.00 0.00 0.00 49 1017.2
20260510122803 8 184 1.6 6.4 0.00 0.00 0.00 48 1017.2
20260510122624 8 186 1.6 6.4 0.00 0.00 0.00 49 1017.1
20260510122403 7 188 1.6 6.4 0.00 0.00 0.00 50 1017.1
20260510122203 7 189 1.6 6.4 0.00 0.00 0.00 50 1017.0
20260510122003 7 189 1.6 6.4 0.00 0.00 0.00 50 1017.0
20260510121803 7 190 1.6 6.4 0.00 0.00 0.00 51 1016.9
20260510121603 7 191 0.0 6.4 0.00 0.00 0.00 51 1016.8
20260510121403 7 191 0.0 6.4 0.00 0.00 0.00 52 1016.8
20260510121203 7 191 0.0 4.8 0.00 0.00 0.00 52 1016.7
20260510121003 7 0 0.0 0.0 0.00 0.00 0.00 53 1016.8
20260510120803 7 0 0.0 0.0 0.00 0.00 0.00 53 1016.8
20260510120603 7 0 0.0 0.0 0.00 0.00 0.00 53 1016.7
20260510120403 7 179 0.0 3.2 0.00 0.00 0.00 54 1016.6
20260510120224 7 179 0.0 3.2 0.00 0.00 0.00 53 1016.6
20260510120024 6 179 0.0 3.2 0.00 0.00 0.00 52 1016.7
20260510115803 6 179 0.0 3.2 0.00 0.00 0.00 55 1016.6
20260510115603 6 179 0.0 3.2 0.00 0.00 0.00 55 1016.6
20260510115403 6 179 0.0 1.6 0.00 0.00 0.00 57 1016.6
20260510115203 6 0 0.0 0.0 0.00 0.00 0.00 59 1016.6
20260510115024 5 0 0.0 0.0 0.00 0.00 0.00 60 1016.6
20260510114824 5 0 0.0 0.0 0.00 0.00 0.00 60 1016.5
20260510114603 5 0 0.0 0.0 0.00 0.00 0.00 61 1016.5
20260510114403 5 179 0.0 1.6 0.00 0.00 0.00 61 1016.5
20260510114203 5 179 0.0 1.6 0.00 0.00 0.00 61 1016.5
20260510114003 5 179 0.0 1.6 0.00 0.00 0.00 62 1016.5
20260510113803 5 179 0.0 1.6 0.00 0.00 0.00 62 1016.4
20260510113603 4 179 0.0 1.6 0.00 0.00 0.00 62 1016.3
20260510113403 4 0 0.0 0.0 0.00 0.00 0.00 62 1016.3
20260510113203 4 0 0.0 0.0 0.00 0.00 0.00 63 1016.3
20260510113024 4 0 0.0 0.0 0.00 0.00 0.00 62 1016.2
20260510112803 4 0 0.0 0.0 0.00 0.00 0.00 63 1016.2
20260510112603 4 0 0.0 0.0 0.00 0.00 0.00 63 1016.1
20260510112403 3 0 0.0 0.0 0.00 0.00 0.00 62 1016.1
20260510112203 3 0 0.0 0.0 0.00 0.00 0.00 62 1016.0
20260510112003 3 0 0.0 0.0 0.00 0.00 0.00 63 1015.9
20260510111803 3 0 0.0 0.0 0.00 0.00 0.00 63 1015.9
20260510111624 3 0 0.0 0.0 0.00 0.00 0.00 62 1015.9
20260510111403 3 0 0.0 0.0 0.00 0.00 0.00 62 1015.9
20260510111203 3 0 0.0 0.0 0.00 0.00 0.00 62 1015.8
20260510111004 3 0 0.0 0.0 0.00 0.00 0.00 62 1015.9
20260510110803 3 0 0.0 0.0 0.00 0.00 0.00 62 1015.9
20260510110624 3 0 0.0 0.0 0.00 0.00 0.00 62 1015.9
20260510110403 3 0 0.0 0.0 0.00 0.00 0.00 62 1015.9
20260510110224 3 179 0.0 1.6 0.00 0.00 0.00 62 1015.8
20260510110004 3 179 0.0 1.6 0.00 0.00 0.00 62 1015.8
20260510105803 3 179 0.0 1.6 0.00 0.00 0.00 62 1015.8
20260510105603 3 179 0.0 1.6 0.00 0.00 0.00 62 1015.7
20260510105403 3 179 0.0 1.6 0.00 0.00 0.00 62 1015.6
20260510105203 3 179 0.0 1.6 0.00 0.00 0.00 62 1015.6
20260510105024 3 179 0.0 1.6 0.00 0.00 0.00 62 1015.6
20260510104803 3 179 0.0 1.6 0.00 0.00 0.00 62 1015.5
20260510104603 3 179 0.0 1.6 0.00 0.00 0.00 62 1015.5
20260510104403 3 179 0.0 1.6 0.00 0.00 0.00 61 1015.5
20260510104203 3 179 0.0 1.6 0.00 0.00 0.00 61 1015.4
20260510104024 3 179 0.0 1.6 0.00 0.00 0.00 61 1015.4
20260510103824 3 0 0.0 0.0 0.00 0.00 0.00 61 1015.3
20260510103603 3 0 0.0 0.0 0.00 0.00 0.00 60 1015.3
20260510103424 3 0 0.0 0.0 0.00 0.00 0.00 60 1015.2
20260510103203 3 0 0.0 0.0 0.00 0.00 0.00 60 1015.2
20260510103003 3 0 0.0 0.0 0.00 0.00 0.00 60 1015.2
20260510102803 3 179 0.0 1.6 0.00 0.00 0.00 60 1015.2
20260510102603 3 179 0.0 1.6 0.00 0.00 0.00 60 1015.1
20260510102403 3 179 0.0 1.6 0.00 0.00 0.00 60 1015.1
20260510102203 3 179 0.0 1.6 0.00 0.00 0.00 60 1015.0
20260510102003 3 179 0.0 1.6 0.00 0.00 0.00 60 1015.0
20260510101803 3 179 0.0 1.6 0.00 0.00 0.00 60 1015.0
20260510101603 3 179 0.0 1.6 0.00 0.00 0.00 60 1015.0
20260510101403 3 179 0.0 1.6 0.00 0.00 0.00 60 1015.0
20260510101203 3 0 0.0 0.0 0.00 0.00 0.00 60 1015.0
20260510101024 3 0 0.0 0.0 0.00 0.00 0.00 60 1015.0
20260510100803 3 0 0.0 0.0 0.00 0.00 0.00 60 1014.9
20260510100624 3 0 0.0 0.0 0.00 0.00 0.00 60 1014.9
20260510100424 3 0 0.0 0.0 0.00 0.00 0.00 60 1014.9
20260510100203 3 0 0.0 0.0 0.00 0.00 0.00 60 1014.9
20260510100024 3 0 0.0 0.0 0.00 0.00 0.00 60 1014.9
20260510095803 3 0 0.0 0.0 0.00 0.00 0.00 60 1014.9
20260510095603 3 0 0.0 0.0 0.00 0.00 0.00 60 1014.8
20260510095424 4 0 0.0 0.0 0.00 0.00 0.00 59 1014.8
20260510095203 4 179 0.0 1.6 0.00 0.00 0.00 59 1014.8
20260510095003 4 179 0.0 1.6 0.00 0.00 0.00 59 1014.8
20260510094803 4 179 0.0 1.6 0.00 0.00 0.00 59 1014.7
20260510094603 4 179 0.0 1.6 0.00 0.00 0.00 58 1014.6
20260510094403 4 179 0.0 1.6 0.00 0.00 0.00 58 1014.6
20260510094224 4 179 0.0 1.6 0.00 0.00 0.00 58 1014.6
20260510094003 4 0 0.0 0.0 0.00 0.00 0.00 57 1014.6
20260510093803 5 0 0.0 0.0 0.00 0.00 0.00 57 1014.6
20260510093624 5 0 0.0 0.0 0.00 0.00 0.00 57 1014.6
20260510093403 5 0 0.0 0.0 0.00 0.00 0.00 56 1014.6
20260510093203 5 0 0.0 0.0 0.00 0.00 0.00 56 1014.6
20260510093024 5 0 0.0 0.0 0.00 0.00 0.00 56 1014.6
20260510092803 5 0 0.0 0.0 0.00 0.00 0.00 55 1014.6
20260510092603 5 179 0.0 1.6 0.00 0.00 0.00 55 1014.6
20260510092403 5 179 0.0 1.6 0.00 0.00 0.00 54 1014.6
20260510092203 6 179 0.0 1.6 0.00 0.00 0.00 53 1014.6
20260510092003 6 179 0.0 1.6 0.00 0.00 0.00 53 1014.5
20260510091824 6 179 0.0 1.6 0.00 0.00 0.00 52 1014.5
20260510091603 6 179 0.0 3.2 0.00 0.00 0.00 50 1014.6
20260510091424 6 179 0.0 3.2 0.00 0.00 0.00 50 1014.6
20260510091203 6 179 0.0 3.2 0.00 0.00 0.00 49 1014.5
20260510091003 6 179 0.0 3.2 0.00 0.00 0.00 49 1014.5
20260510090803 6 179 0.0 3.2 0.00 0.00 0.00 49 1014.5
20260510090603 6 179 0.0 3.2 0.00 0.00 0.00 49 1014.5
20260510090403 6 179 0.0 3.2 0.00 0.00 0.00 48 1014.4
20260510090224 6 179 0.0 3.2 0.00 0.00 0.00 48 1014.4
20260510090024 6 179 0.0 3.2 0.00 0.00 0.00 48 1014.4
20260510085803 6 179 0.0 3.2 0.00 0.00 0.00 48 1014.4
20260510085624 6 180 1.6 3.2 0.00 0.00 0.00 48 1014.4
20260510085403 6 183 1.6 4.8 0.00 0.00 0.00 48 1014.4
20260510085203 6 183 1.6 4.8 0.00 0.00 0.00 47 1014.4
20260510085003 6 181 1.6 4.8 0.00 0.00 0.00 47 1014.3
20260510084803 6 178 3.2 9.7 0.00 0.00 0.00 47 1014.3
20260510084603 6 176 3.2 9.7 0.00 0.00 0.00 47 1014.3
20260510084424 7 173 3.2 9.7 0.00 0.00 0.00 47 1014.2
20260510084203 7 171 3.2 9.7 0.00 0.00 0.00 47 1014.2
20260510084003 7 175 3.2 9.7 0.00 0.00 0.00 46 1014.2
20260510083803 7 177 3.2 8.0 0.00 0.00 0.00 46 1014.2
20260510083603 7 180 3.2 9.7 0.00 0.00 0.00 46 1014.1
20260510083403 7 182 3.2 9.7 0.00 0.00 0.00 46 1014.1
20260510083203 7 182 3.2 9.7 0.00 0.00 0.00 46 1014.1
20260510083003 7 181 3.2 9.7 0.00 0.00 0.00 46 1014.0
20260510082803 7 182 3.2 9.7 0.00 0.00 0.00 46 1014.0
20260510082603 7 174 3.2 8.0 0.00 0.00 0.00 46 1014.0
20260510082403 7 172 3.2 8.0 0.00 0.00 0.00 46 1013.9
20260510082203 7 168 3.2 9.7 0.00 0.00 0.00 46 1013.8
20260510082024 7 172 4.8 9.7 0.00 0.00 0.00 46 1013.8
20260510081803 7 175 4.8 11.3 0.00 0.00 0.00 46 1013.7
20260510081603 7 180 4.8 11.3 0.00 0.00 0.00 46 1013.7
20260510081403 7 179 4.8 11.3 0.00 0.00 0.00 45 1013.6
20260510081203 7 182 4.8 14.5 0.00 0.00 0.00 45 1013.5
20260510081003 7 178 4.8 14.5 0.00 0.00 0.00 45 1013.5
20260510080824 7 174 4.8 14.5 0.00 0.00 0.00 45 1013.5
20260510080603 7 171 4.8 14.5 0.00 0.00 0.00 46 1013.5
20260510080403 7 174 4.8 14.5 0.00 0.00 0.00 46 1013.4
20260510080203 7 173 4.8 12.9 0.00 0.00 0.00 46 1013.4
20260510080003 7 176 4.8 12.9 0.00 0.00 0.00 45 1013.3
20260510075824 7 176 4.8 11.3 0.00 0.00 0.00 45 1013.3
20260510075624 7 176 4.8 11.3 0.00 0.00 0.00 46 1013.2
20260510075424 7 178 4.8 11.3 0.00 0.00 0.00 45 1013.3
20260510075203 7 178 4.8 11.3 0.00 0.00 0.00 45 1013.3
20260510075003 7 182 4.8 11.3 0.00 0.00 0.00 46 1013.2
20260510074824 7 183 4.8 12.9 0.00 0.00 0.00 46 1013.2
20260510074603 7 181 6.4 14.5 0.00 0.00 0.00 45 1013.2
20260510074403 8 175 6.4 14.5 0.00 0.00 0.00 46 1013.1
20260510074224 8 175 6.4 14.5 0.00 0.00 0.00 45 1013.1
20260510074003 8 174 6.4 14.5 0.00 0.00 0.00 45 1013.1
20260510073803 8 171 6.4 14.5 0.00 0.00 0.00 45 1013.1
20260510073603 8 173 8.0 19.3 0.00 0.00 0.00 46 1013.1
20260510073403 8 175 8.0 19.3 0.00 0.00 0.00 46 1013.0
20260510073224 8 175 6.4 19.3 0.00 0.00 0.00 46 1013.0
20260510073003 8 172 6.4 19.3 0.00 0.00 0.00 47 1013.0
20260510072803 8 172 6.4 19.3 0.00 0.00 0.00 46 1013.1
20260510072626 8 170 6.4 17.7 0.00 0.00 0.00 47 1013.0
20260510072404 8 173 6.4 17.7 0.00 0.00 0.00 49 1012.9
20260510072204 8 175 6.4 17.7 0.00 0.00 0.00 49 1012.9
20260510072004 8 173 6.4 17.7 0.00 0.00 0.00 49 1012.9
20260510071803 8 173 6.4 17.7 0.00 0.00 0.00 48 1012.8
20260510071603 8 173 4.8 16.1 0.00 0.00 0.00 49 1012.8
20260510071403 8 174 4.8 16.1 0.00 0.00 0.00 51 1012.7
20260510071203 8 171 4.8 16.1 0.00 0.00 0.00 52 1012.6
20260510071003 8 173 4.8 16.1 0.00 0.00 0.00 53 1012.6
20260510070803 8 169 4.8 16.1 0.00 0.00 0.00 54 1012.5
20260510070603 8 161 4.8 14.5 0.00 0.00 0.00 54 1012.4
20260510070403 8 135 4.8 11.3 0.00 0.00 0.00 55 1012.4
20260510070203 8 116 4.8 11.3 0.00 0.00 0.00 55 1012.4
20260510070024 8 101 4.8 11.3 0.00 0.00 0.00 55 1012.3
20260510065803 8 96 4.8 11.3 0.00 0.00 0.00 56 1012.3
20260510065603 8 92 4.8 11.3 0.00 0.00 0.00 57 1012.2
20260510065403 7 91 3.2 11.3 0.00 0.00 0.00 58 1012.2
20260510065224 7 91 3.2 11.3 0.00 0.00 0.00 59 1012.1
20260510065003 7 94 1.6 11.3 0.00 0.00 0.00 61 1012.1
20260510064824 7 91 0.0 8.0 0.00 0.00 0.00 62 1012.0
20260510064624 7 41 0.0 3.2 0.00 0.00 0.00 62 1011.9
20260510064403 7 41 0.0 3.2 0.00 0.00 0.00 63 1011.9
20260510064203 7 0 0.0 0.0 0.00 0.00 0.00 62 1011.7
20260510064003 7 0 0.0 0.0 0.00 0.00 0.00 62 1011.7
20260510063803 7 0 0.0 0.0 0.00 0.00 0.00 62 1011.7
20260510063604 7 0 0.0 0.0 0.00 0.00 0.00 61 1011.7
20260510063424 7 0 0.0 0.0 0.00 0.00 0.00 62 1011.6
20260510063203 7 0 0.0 0.0 0.00 0.00 0.00 62 1011.6
20260510063025 7 0 0.0 0.0 0.00 0.00 0.00 63 1011.5
20260510062803 7 0 0.0 0.0 0.00 0.00 0.00 62 1011.5
20260510062603 7 0 0.0 0.0 0.00 0.00 0.00 63 1011.5
20260510062424 7 0 0.0 0.0 0.00 0.00 0.00 63 1011.5
20260510062224 7 0 0.0 0.0 0.00 0.00 0.00 62 1011.5
20260510062024 7 0 0.0 0.0 0.00 0.00 0.00 62 1011.5
20260510061803 7 0 0.0 0.0 0.00 0.00 0.00 62 1011.4
20260510061624 7 0 0.0 0.0 0.00 0.00 0.00 63 1011.4
20260510061424 7 0 0.0 0.0 0.00 0.00 0.00 63 1011.4
20260510061203 7 0 0.0 0.0 0.00 0.00 0.00 61 1011.3
20260510061003 7 0 0.0 0.0 0.00 0.00 0.00 62 1011.3
20260510060824 7 0 0.0 0.0 0.00 0.00 0.00 62 1011.3
20260510060603 7 0 0.0 0.0 0.00 0.00 0.00 62 1011.3
20260510060424 7 0 0.0 0.0 0.00 0.00 0.00 61 1011.3
20260510060203 7 0 0.0 0.0 0.00 0.00 0.00 60 1011.3
20260510060024 7 0 0.0 0.0 0.00 0.00 0.00 59 1011.2
20260510055803 7 0 0.0 0.0 0.00 0.00 0.00 59 1011.2
20260510055603 7 0 0.0 0.0 0.00 0.00 0.00 59 1011.2
20260510055403 8 0 0.0 0.0 0.00 0.00 0.00 60 1011.2
20260510055203 8 0 0.0 0.0 0.00 0.00 0.00 61 1011.2
20260510055003 8 0 0.0 0.0 0.00 0.00 0.00 60 1011.1
20260510054803 8 0 0.0 0.0 0.00 0.00 0.00 59 1011.1
20260510054603 8 0 0.0 0.0 0.00 0.00 0.00 59 1011.0
20260510054403 8 0 0.0 0.0 0.00 0.00 0.00 59 1011.0
20260510054224 8 0 0.0 0.0 0.00 0.00 0.00 60 1011.0
20260510054003 8 0 0.0 0.0 0.00 0.00 0.00 59 1011.0
20260510053824 8 0 0.0 0.0 0.00 0.00 0.00 59 1011.0
20260510053603 8 0 0.0 0.0 0.00 0.00 0.00 58 1011.0
20260510053403 8 0 0.0 0.0 0.00 0.00 0.00 58 1011.0
20260510053203 8 0 0.0 0.0 0.00 0.00 0.00 58 1010.9
20260510053003 9 0 0.0 0.0 0.00 0.00 0.00 58 1010.9
20260510052824 8 0 0.0 0.0 0.00 0.00 0.00 59 1010.9
20260510052603 9 0 0.0 0.0 0.00 0.00 0.00 57 1010.9
20260510052403 9 0 0.0 0.0 0.00 0.00 0.00 58 1010.8
20260510052224 9 0 0.0 0.0 0.00 0.00 0.00 57 1010.8
20260510052003 9 0 0.0 0.0 0.00 0.00 0.00 57 1010.8
20260510051803 9 0 0.0 0.0 0.00 0.00 0.00 57 1010.7
20260510051603 9 0 0.0 0.0 0.00 0.00 0.00 57 1010.7
20260510051424 9 0 0.0 0.0 0.00 0.00 0.00 56 1010.7
20260510051203 9 0 0.0 0.0 0.00 0.00 0.00 57 1010.7
20260510051003 9 0 0.0 0.0 0.00 0.00 0.00 57 1010.6
20260510050803 9 0 0.0 0.0 0.00 0.00 0.00 57 1010.6
20260510050604 9 0 0.0 0.0 0.00 0.00 0.00 57 1010.6
20260510050403 9 0 0.0 0.0 0.00 0.00 0.00 57 1010.6
20260510050225 9 0 0.0 0.0 0.00 0.00 0.00 57 1010.6
20260510050004 9 0 0.0 0.0 0.00 0.00 0.00 56 1010.5
20260510045804 9 0 0.0 0.0 0.00 0.00 0.00 57 1010.6
20260510045604 9 0 0.0 0.0 0.00 0.00 0.00 57 1010.5
20260510045424 9 0 0.0 0.0 0.00 0.00 0.00 57 1010.5
20260510045203 10 0 0.0 0.0 0.00 0.00 0.00 57 1010.5
20260510045024 10 0 0.0 0.0 0.00 0.00 0.00 57 1010.5
20260510044824 10 0 0.0 0.0 0.00 0.00 0.00 56 1010.4
20260510044604 10 0 0.0 0.0 0.00 0.00 0.00 57 1010.3
20260510044403 10 0 0.0 0.0 0.00 0.00 0.00 57 1010.3
20260510044224 10 0 0.0 0.0 0.00 0.00 0.00 58 1010.4
20260510044003 9 0 0.0 0.0 0.00 0.00 0.00 58 1010.3
20260510043803 9 0 0.0 0.0 0.00 0.00 0.00 59 1010.3
20260510043603 9 0 0.0 0.0 0.00 0.00 0.00 57 1010.3
20260510043403 9 0 0.0 0.0 0.00 0.00 0.00 57 1010.3
20260510043203 9 0 0.0 0.0 0.00 0.00 0.00 57 1010.3
20260510043003 9 0 0.0 0.0 0.00 0.00 0.00 56 1010.2
20260510042803 9 0 0.0 0.0 0.00 0.00 0.00 57 1010.2
20260510042624 9 0 0.0 0.0 0.00 0.00 0.00 58 1010.2
20260510042403 9 0 0.0 0.0 0.00 0.00 0.00 57 1010.1
20260510042203 9 0 0.0 0.0 0.00 0.00 0.00 57 1010.1
20260510042003 9 0 0.0 0.0 0.00 0.00 0.00 58 1010.1
20260510041824 9 0 0.0 0.0 0.00 0.00 0.00 59 1010.1
20260510041603 9 0 0.0 0.0 0.00 0.00 0.00 59 1010.1
20260510041403 8 0 0.0 0.0 0.00 0.00 0.00 59 1010.1
20260510041224 8 0 0.0 0.0 0.00 0.00 0.00 60 1010.0
20260510041003 8 0 0.0 0.0 0.00 0.00 0.00 60 1010.0
20260510040803 8 0 0.0 0.0 0.00 0.00 0.00 61 1010.0
20260510040624 8 0 0.0 0.0 0.00 0.00 0.00 61 1010.0
20260510040403 8 0 0.0 0.0 0.00 0.00 0.00 60 1010.0
20260510040203 8 0 0.0 0.0 0.00 0.00 0.00 60 1010.0
20260510040005 8 0 0.0 0.0 0.00 0.00 0.00 59 1009.9
20260510035803 8 0 0.0 0.0 0.00 0.00 0.00 59 1009.9
20260510035603 8 0 0.0 0.0 0.00 0.00 0.00 59 1009.9
20260510035403 8 0 0.0 0.0 0.00 0.00 0.00 58 1009.9
20260510035203 8 0 0.0 0.0 0.00 0.00 0.00 58 1009.8
20260510035003 8 0 0.0 0.0 0.00 0.00 0.00 58 1009.8
20260510034803 8 0 0.0 0.0 0.00 0.00 0.00 57 1009.8
20260510034603 8 0 0.0 0.0 0.00 0.00 0.00 57 1009.7
20260510034403 9 0 0.0 0.0 0.00 0.00 0.00 57 1009.7
20260510034203 9 0 0.0 0.0 0.00 0.00 0.00 56 1009.7
20260510034003 9 0 0.0 0.0 0.00 0.00 0.00 56 1009.7
20260510033803 9 0 0.0 0.0 0.00 0.00 0.00 56 1009.7
20260510033624 9 0 0.0 0.0 0.00 0.00 0.00 56 1009.7
20260510033424 9 0 0.0 0.0 0.00 0.00 0.00 56 1009.7
20260510033224 9 0 0.0 0.0 0.00 0.00 0.00 55 1009.6
20260510033003 9 0 0.0 0.0 0.00 0.00 0.00 55 1009.6
20260510032803 9 0 0.0 0.0 0.00 0.00 0.00 55 1009.5
20260510032624 9 0 0.0 0.0 0.00 0.00 0.00 55 1009.6
20260510032403 9 0 0.0 0.0 0.00 0.00 0.00 54 1009.6
20260510032224 9 0 0.0 0.0 0.00 0.00 0.00 54 1009.6
20260510032003 9 0 0.0 0.0 0.00 0.00 0.00 55 1009.6
20260510031803 10 0 0.0 0.0 0.00 0.00 0.00 55 1009.5
20260510031603 10 0 0.0 0.0 0.00 0.00 0.00 54 1009.5
20260510031403 10 0 0.0 0.0 0.00 0.00 0.00 54 1009.5
20260510031203 10 0 0.0 0.0 0.00 0.00 0.00 54 1009.4
20260510031024 10 0 0.0 0.0 0.00 0.00 0.00 53 1009.4
20260510030803 10 65 0.0 1.6 0.00 0.00 0.00 53 1009.3
20260510030603 10 64 0.0 1.6 0.00 0.00 0.00 52 1009.3
20260510030403 10 65 0.0 1.6 0.00 0.00 0.00 51 1009.2
20260510030203 10 65 0.0 3.2 0.00 0.00 0.00 51 1009.2
20260510030024 11 64 1.6 3.2 0.00 0.00 0.00 51 1009.2
20260510025825 11 64 1.6 3.2 0.00 0.00 0.00 51 1009.1
20260510025603 11 65 1.6 4.8 0.00 0.00 0.00 50 1009.2
20260510025403 11 67 1.6 4.8 0.00 0.00 0.00 50 1009.1
20260510025224 11 67 1.6 4.8 0.00 0.00 0.00 50 1009.1
20260510025003 11 67 1.6 4.8 0.00 0.00 0.00 49 1009.1
20260510024803 11 67 1.6 4.8 0.00 0.00 0.00 49 1009.1
20260510024624 11 68 0.0 4.8 0.00 0.00 0.00 49 1009.1
20260510024403 11 60 0.0 4.8 0.00 0.00 0.00 49 1009.0
20260510024203 11 54 0.0 4.8 0.00 0.00 0.00 49 1009.0
20260510024024 11 51 0.0 3.2 0.00 0.00 0.00 49 1009.0
20260510023803 11 50 1.6 3.2 0.00 0.00 0.00 48 1009.0
20260510023603 12 50 1.6 3.2 0.00 0.00 0.00 47 1008.9
20260510023403 12 55 1.6 4.8 0.00 0.00 0.00 46 1008.8
20260510023203 12 66 1.6 8.0 0.00 0.00 0.00 46 1008.8
20260510023003 12 71 1.6 8.0 0.00 0.00 0.00 45 1008.8
20260510022803 12 83 3.2 8.0 0.00 0.00 0.00 44 1008.8
20260510022603 12 88 3.2 8.0 0.00 0.00 0.00 44 1008.7
20260510022403 12 89 3.2 8.0 0.00 0.00 0.00 42 1008.6
20260510022203 13 88 3.2 8.0 0.00 0.00 0.00 44 1008.6
20260510022003 13 90 3.2 8.0 0.00 0.00 0.00 41 1008.5
20260510021824 13 91 3.2 8.0 0.00 0.00 0.00 41 1008.5
20260510021603 13 93 3.2 8.0 0.00 0.00 0.00 43 1008.4
20260510021403 13 95 3.2 8.0 0.00 0.00 0.00 42 1008.4
20260510021203 13 99 3.2 11.3 0.00 0.00 0.00 42 1008.4
20260510021003 13 97 3.2 11.3 0.00 0.00 0.00 42 1008.3
20260510020803 13 97 3.2 11.3 0.00 0.00 0.00 41 1008.2
20260510020603 13 96 4.8 11.3 0.00 0.00 0.00 41 1008.2
20260510020403 13 97 4.8 11.3 0.00 0.00 0.00 40 1008.2
20260510020203 13 96 4.8 8.0 0.00 0.00 0.00 40 1008.1
20260510020004 13 95 4.8 8.0 0.00 0.00 0.00 40 1008.1
20260510015803 13 94 3.2 8.0 0.00 0.00 0.00 40 1007.9
20260510015604 13 92 3.2 8.0 0.00 0.00 0.00 39 1008.0
20260510015403 13 90 3.2 6.4 0.00 0.00 0.00 40 1007.9
20260510015203 13 90 3.2 6.4 0.00 0.00 0.00 40 1007.9
20260510015003 13 91 3.2 8.0 0.00 0.00 0.00 40 1007.9
20260510014803 13 91 4.8 9.7 0.00 0.00 0.00 38 1007.9
20260510014603 14 94 4.8 9.7 0.00 0.00 0.00 40 1007.8
20260510014403 14 95 4.8 9.7 0.00 0.00 0.00 38 1007.8
20260510014203 14 98 4.8 9.7 0.00 0.00 0.00 37 1007.7
20260510014003 14 99 4.8 9.7 0.00 0.00 0.00 37 1007.7
20260510013803 14 98 4.8 9.7 0.00 0.00 0.00 37 1007.6
20260510013603 14 96 4.8 9.7 0.00 0.00 0.00 36 1007.6
20260510013403 14 95 4.8 11.3 0.00 0.00 0.00 36 1007.5
20260510013203 14 93 6.4 12.9 0.00 0.00 0.00 36 1007.5
20260510013003 15 93 6.4 17.7 0.00 0.00 0.00 36 1007.5
20260510012803 15 95 6.4 17.7 0.00 0.00 0.00 36 1007.5
20260510012603 15 96 6.4 17.7 0.00 0.00 0.00 35 1007.4
20260510012424 15 96 6.4 17.7 0.00 0.00 0.00 36 1007.4
20260510012203 15 96 6.4 17.7 0.00 0.00 0.00 35 1007.4
20260510012003 15 97 6.4 20.9 0.00 0.00 0.00 35 1007.3
20260510011803 15 95 6.4 20.9 0.00 0.00 0.00 35 1007.3
20260510011604 15 92 8.0 20.9 0.00 0.00 0.00 35 1007.2
20260510011403 15 96 8.0 20.9 0.00 0.00 0.00 35 1007.1
20260510011203 15 95 9.7 20.9 0.00 0.00 0.00 35 1007.1
20260510011003 15 95 11.3 19.3 0.00 0.00 0.00 36 1007.0
20260510010824 15 97 11.3 24.1 0.00 0.00 0.00 35 1007.0
20260510010603 15 97 11.3 24.1 0.00 0.00 0.00 35 1007.0
20260510010403 15 94 11.3 24.1 0.00 0.00 0.00 35 1006.9
20260510010224 15 94 9.7 24.1 0.00 0.00 0.00 35 1006.9
20260510010003 15 93 9.7 24.1 0.00 0.00 0.00 35 1006.8
20260510005803 16 93 9.7 17.7 0.00 0.00 0.00 36 1006.8
20260510005603 16 93 9.7 17.7 0.00 0.00 0.00 36 1006.7
20260510005403 16 95 11.3 24.1 0.00 0.00 0.00 36 1006.6
20260510005203 16 93 11.3 24.1 0.00 0.00 0.00 35 1006.6
20260510005003 16 95 11.3 24.1 0.00 0.00 0.00 35 1006.5
20260510004803 16 93 11.3 24.1 0.00 0.00 0.00 35 1006.4
20260510004603 16 89 11.3 24.1 0.00 0.00 0.00 35 1006.3
20260510004403 16 89 11.3 20.9 0.00 0.00 0.00 35 1006.3
20260510004224 16 91 12.9 25.7 0.00 0.00 0.00 35 1006.2
20260510004003 16 92 12.9 25.7 0.00 0.00 0.00 35 1006.1
20260510003803 17 92 14.5 25.7 0.00 0.00 0.00 35 1006.0
20260510003603 17 91 12.9 27.4 0.00 0.00 0.00 34 1006.0
20260510003403 17 88 12.9 27.4 0.00 0.00 0.00 34 1005.9
20260510003203 17 84 12.9 27.4 0.00 0.00 0.00 33 1005.8
20260510003004 17 81 14.5 27.4 0.00 0.00 0.00 33 1005.7
20260510002803 17 78 12.9 27.4 0.00 0.00 0.00 33 1005.7
20260510002603 17 73 14.5 25.7 0.00 0.00 0.00 33 1005.6
20260510002424 18 68 14.5 25.7 0.00 0.00 0.00 32 1005.5
20260510002203 18 60 14.5 25.7 0.00 0.00 0.00 31 1005.4
20260510002003 18 51 12.9 25.7 0.00 0.00 0.00 31 1005.3
20260510001803 18 49 11.3 25.7 0.00 0.00 0.00 31 1005.2
20260510001603 18 46 11.3 22.5 0.00 0.00 0.00 32 1005.2
20260510001403 18 38 9.7 19.3 0.00 0.00 0.00 31 1005.1
20260510001203 18 38 9.7 19.3 0.00 0.00 0.00 32 1004.9
20260510001003 18 37 11.3 19.3 0.00 0.00 0.00 31 1004.9
20260510000803 18 32 11.3 24.1 0.00 0.00 0.00 30 1004.9
20260510000603 18 35 11.3 24.1 0.00 0.00 0.00 30 1004.9
20260510000403 18 39 12.9 24.1 0.00 0.00 0.00 30 1004.7
20260510000204 18 42 11.3 24.1 0.00 0.00 0.00 29 1004.7
20260510000003 19 46 11.3 24.1 0.00 0.00 0.00 29 1004.7
20260509235803 19 50 11.3 24.1 0.00 0.00 0.00 29 1004.6
20260509235603 19 49 11.3 24.1 0.00 0.00 0.00 30 1004.6
20260509235403 19 47 9.7 24.1 0.00 0.00 0.00 30 1004.5
20260509235203 19 44 11.3 20.9 0.00 0.00 0.00 29 1004.5
20260509235003 19 47 11.3 20.9 0.00 0.00 0.00 28 1004.4
20260509234824 19 43 9.7 20.9 0.00 0.00 0.00 29 1004.4
20260509234603 19 29 11.3 20.9 0.00 0.00 0.00 30 1004.3
20260509234403 19 19 12.9 20.9 0.00 0.00 0.00 29 1004.3
20260509234203 19 14 11.3 20.9 0.00 0.00 0.00 31 1004.2
20260509234003 20 6 12.9 20.9 0.00 0.00 0.00 31 1004.2
20260509233803 20 2 12.9 22.5 0.00 0.00 0.00 29 1004.2
20260509233603 20 6 11.3 22.5 0.00 0.00 0.00 29 1004.1
20260509233403 20 10 9.7 22.5 0.00 0.00 0.00 31 1004.0
20260509233203 20 12 9.7 22.5 0.00 0.00 0.00 32 1004.0
20260509233003 20 8 9.7 22.5 0.00 0.00 0.00 32 1003.9
20260509232803 20 4 9.7 25.7 0.00 0.00 0.00 32 1003.8
20260509232603 20 359 11.3 25.7 0.00 0.00 0.00 33 1003.9
20260509232403 20 360 11.3 25.7 0.00 0.00 0.00 32 1003.9
20260509232203 20 357 11.3 25.7 0.00 0.00 0.00 30 1003.9
20260509232003 20 354 9.7 25.7 0.00 0.00 0.00 29 1003.9
20260509231803 20 358 9.7 24.1 0.00 0.00 0.00 30 1003.9
20260509231603 20 4 8.0 24.1 0.00 0.00 0.00 32 1003.8
20260509231424 20 360 8.0 22.5 0.00 0.00 0.00 31 1003.9
20260509231203 20 4 8.0 22.5 0.00 0.00 0.00 32 1003.9
20260509231003 20 9 9.7 22.5 0.00 0.00 0.00 33 1003.8
20260509230803 20 9 11.3 19.3 0.00 0.00 0.00 32 1003.8
20260509230603 20 6 12.9 32.2 0.00 0.00 0.00 31 1003.8
20260509230403 20 5 12.9 32.2 0.00 0.00 0.00 31 1003.8
20260509230224 20 3 12.9 32.2 0.00 0.00 0.00 33 1003.8
20260509230003 20 1 12.9 32.2 0.00 0.00 0.00 30 1003.8
20260509225824 20 359 12.9 32.2 0.00 0.00 0.00 29 1003.8
20260509225624 20 356 12.9 29.0 0.00 0.00 0.00 28 1003.8
20260509225403 21 359 12.9 29.0 0.00 0.00 0.00 28 1003.8
20260509225203 21 358 12.9 29.0 0.00 0.00 0.00 29 1003.8
20260509225003 21 360 12.9 29.0 0.00 0.00 0.00 28 1003.7
20260509224803 21 1 12.9 27.4 0.00 0.00 0.00 29 1003.7
20260509224603 21 360 12.9 25.7 0.00 0.00 0.00 31 1003.7
20260509224403 20 355 12.9 25.7 0.00 0.00 0.00 29 1003.7
20260509224203 20 352 12.9 25.7 0.00 0.00 0.00 29 1003.7
20260509224004 20 346 12.9 25.7 0.00 0.00 0.00 30 1003.8
20260509223803 20 342 12.9 25.7 0.00 0.00 0.00 30 1003.7
20260509223624 20 336 14.5 25.7 0.00 0.00 0.00 30 1003.8
20260509223403 20 336 14.5 25.7 0.00 0.00 0.00 30 1003.8
20260509223203 20 338 12.9 25.7 0.00 0.00 0.00 29 1003.8
20260509223003 20 339 11.3 25.7 0.00 0.00 0.00 30 1003.8
20260509222803 20 344 11.3 27.4 0.00 0.00 0.00 29 1003.8
20260509222624 20 352 9.7 27.4 0.00 0.00 0.00 31 1003.8
20260509222403 20 358 8.0 27.4 0.00 0.00 0.00 36 1003.8
20260509222203 20 359 8.0 27.4 0.00 0.00 0.00 35 1003.7
20260509222004 20 360 8.0 27.4 0.00 0.00 0.00 36 1003.7
20260509221803 20 1 9.7 17.7 0.00 0.00 0.00 39 1003.8
20260509221603 20 359 9.7 17.7 0.00 0.00 0.00 37 1003.7
20260509221403 20 1 9.7 20.9 0.00 0.00 0.00 37 1003.7
20260509221203 20 3 11.3 24.1 0.00 0.00 0.00 35 1003.7
20260509221024 20 5 12.9 25.7 0.00 0.00 0.00 36 1003.8
20260509220803 20 6 12.9 25.7 0.00 0.00 0.00 35 1003.7
20260509220603 19 8 14.5 25.7 0.00 0.00 0.00 35 1003.7
20260509220403 20 10 14.5 25.7 0.00 0.00 0.00 37 1003.7
20260509220203 20 9 12.9 25.7 0.00 0.00 0.00 36 1003.8
20260509220024 20 6 12.9 24.1 0.00 0.00 0.00 35 1003.8
20260509215803 20 6 11.3 25.7 0.00 0.00 0.00 34 1003.8
20260509215624 20 4 9.7 25.7 0.00 0.00 0.00 36 1003.7
20260509215403 20 355 8.0 25.7 0.00 0.00 0.00 34 1003.8
20260509215203 20 353 8.0 25.7 0.00 0.00 0.00 35 1003.7
20260509215003 20 348 8.0 20.9 0.00 0.00 0.00 33 1003.6
20260509214803 20 338 8.0 20.9 0.00 0.00 0.00 33 1003.8
20260509214603 20 332 8.0 17.7 0.00 0.00 0.00 32 1003.7
20260509214403 21 328 8.0 17.7 0.00 0.00 0.00 31 1003.7
20260509214203 21 327 8.0 17.7 0.00 0.00 0.00 31 1003.6
20260509214024 21 331 8.0 19.3 0.00 0.00 0.00 30 1003.7
20260509213803 21 337 8.0 19.3 0.00 0.00 0.00 33 1003.7
20260509213624 21 334 8.0 19.3 0.00 0.00 0.00 33 1003.7
20260509213403 20 335 9.7 19.3 0.00 0.00 0.00 33 1003.7
20260509213203 20 327 9.7 19.3 0.00 0.00 0.00 33 1003.8
20260509213024 20 319 11.3 19.3 0.00 0.00 0.00 32 1003.7
20260509212803 20 316 11.3 20.9 0.00 0.00 0.00 34 1003.7
20260509212603 20 316 11.3 20.9 0.00 0.00 0.00 31 1003.8
20260509212403 20 313 11.3 22.5 0.00 0.00 0.00 32 1003.8
20260509212203 20 315 9.7 22.5 0.00 0.00 0.00 31 1003.8
20260509212003 20 318 9.7 22.5 0.00 0.00 0.00 33 1003.9
20260509211803 21 315 9.7 22.5 0.00 0.00 0.00 31 1003.9
20260509211603 20 321 9.7 22.5 0.00 0.00 0.00 32 1003.9
20260509211403 20 330 8.0 19.3 0.00 0.00 0.00 33 1003.9
20260509211203 20 338 9.7 19.3 0.00 0.00 0.00 33 1003.8
20260509211003 20 342 9.7 22.5 0.00 0.00 0.00 34 1003.8
20260509210803 20 343 9.7 22.5 0.00 0.00 0.00 33 1003.9
20260509210603 20 333 9.7 22.5 0.00 0.00 0.00 33 1003.9
20260509210403 20 331 11.3 22.5 0.00 0.00 0.00 34 1003.9
20260509210203 20 326 9.7 22.5 0.00 0.00 0.00 34 1003.9
20260509210003 20 323 9.7 22.5 0.00 0.00 0.00 32 1003.9
20260509205803 20 326 8.0 22.5 0.00 0.00 0.00 34 1003.9
20260509205603 20 333 8.0 20.9 0.00 0.00 0.00 37 1003.9
20260509205424 20 338 8.0 16.1 0.00 0.00 0.00 35 1003.9
20260509205203 20 338 8.0 16.1 0.00 0.00 0.00 38 1003.9
20260509205003 20 343 8.0 16.1 0.00 0.00 0.00 38 1003.8
20260509204824 19 345 8.0 16.1 0.00 0.00 0.00 38 1003.9
20260509204603 19 344 8.0 19.3 0.00 0.00 0.00 36 1003.9
20260509204403 19 335 8.0 19.3 0.00 0.00 0.00 36 1003.9
20260509204224 19 333 8.0 19.3 0.00 0.00 0.00 39 1003.9
20260509204003 18 332 8.0 19.3 0.00 0.00 0.00 37 1003.9
20260509203824 18 333 6.4 19.3 0.00 0.00 0.00 39 1004.0
20260509203603 18 340 6.4 16.1 0.00 0.00 0.00 41 1003.9
20260509203424 18 354 6.4 16.1 0.00 0.00 0.00 41 1004.0
20260509203203 18 358 6.4 14.5 0.00 0.00 0.00 43 1003.9
20260509203003 18 351 8.0 14.5 0.00 0.00 0.00 43 1004.0
20260509202803 18 349 6.4 14.5 0.00 0.00 0.00 43 1004.0
20260509202603 17 349 6.4 14.5 0.00 0.00 0.00 45 1004.1
20260509202403 17 345 6.4 14.5 0.00 0.00 0.00 47 1004.1
20260509202203 17 350 4.8 14.5 0.00 0.00 0.00 44 1004.1
20260509202003 17 356 4.8 12.9 0.00 0.00 0.00 47 1004.0
20260509201803 17 1 6.4 12.9 0.00 0.00 0.00 48 1004.2
20260509201603 16 1 4.8 12.9 0.00 0.00 0.00 46 1004.2
20260509201403 16 1 4.8 12.9 0.00 0.00 0.00 46 1004.3
20260509201203 16 359 4.8 12.9 0.00 0.00 0.00 46 1004.2
20260509201003 16 360 4.8 11.3 0.00 0.00 0.00 47 1004.3
20260509200803 16 360 4.8 11.3 0.00 0.00 0.00 48 1004.2
20260509200624 16 360 4.8 11.3 0.00 0.00 0.00 46 1004.3
20260509200403 16 1 6.4 11.3 0.00 0.00 0.00 45 1004.3
20260509200203 16 3 6.4 12.9 0.00 0.00 0.00 45 1004.3
20260509200024 16 8 6.4 12.9 0.00 0.00 0.00 46 1004.4
20260509195803 16 5 6.4 12.9 0.00 0.00 0.00 45 1004.4
20260509195603 16 7 6.4 12.9 0.00 0.00 0.00 45 1004.3
20260509195403 16 4 6.4 16.1 0.00 0.00 0.00 44 1004.3
20260509195203 16 5 6.4 19.3 0.00 0.00 0.00 45 1004.3
20260509195024 16 7 8.0 19.3 0.00 0.00 0.00 43 1004.3
20260509194803 16 7 8.0 19.3 0.00 0.00 0.00 43 1004.3
20260509194603 16 9 9.7 19.3 0.00 0.00 0.00 42 1004.4
20260509194403 17 12 8.0 19.3 0.00 0.00 0.00 41 1004.5
20260509194224 17 15 9.7 16.1 0.00 0.00 0.00 42 1004.5
20260509194003 17 11 9.7 17.7 0.00 0.00 0.00 44 1004.4
20260509193824 17 11 9.7 17.7 0.00 0.00 0.00 40 1004.4
20260509193603 17 6 9.7 17.7 0.00 0.00 0.00 42 1004.5
20260509193403 17 3 9.7 17.7 0.00 0.00 0.00 41 1004.5
20260509193203 17 350 9.7 17.7 0.00 0.00 0.00 39 1004.5
20260509193024 18 345 8.0 17.7 0.00 0.00 0.00 39 1004.4
20260509192824 18 339 8.0 14.5 0.00 0.00 0.00 39 1004.3
20260509192603 18 341 8.0 14.5 0.00 0.00 0.00 39 1004.3
20260509192403 18 341 8.0 12.9 0.00 0.00 0.00 37 1004.4